RYR28SH LIRN-GMMX

Flight info

Callsign RYR28SH
Flight time N/A
Altitude 36000
Route VEXUV DCT PNZ DCT ROTUN DCT TURMO/N0444F370 DCT POKAV DCT USEPI DCT GOKMI DCT SUPUX DCT ETOIL DCT REQIN UG26 ZEM/N0449F380 UG26 CHE UA411 FES/N0449F390 UM372 AGOVA/N0440F380 UW900 TIXAL UG850 OBOGA
Aircraft B38M/M-SDE1FGHILORVWXY/HB1

Departure

Time 2026-05-06 07:12
Airport Naples International Airport (LIRN)

Arrival

Time N/A
Airport Marrakesh Menara Airport (GMMX)
Time Latitude Longitude Altitude Speed Heading
2026-05-06 06:49 40.87777 14.28007 300 ft 0 kts 141°
2026-05-06 07:00 40.87778 14.28007 300 ft 1 kts 141°
2026-05-06 07:00 40.87795 14.27988 303 ft 4 kts 141°
2026-05-06 07:00 40.87813 14.27970 301 ft 2 kts 141°
2026-05-06 07:01 40.87833 14.27948 300 ft 4 kts 141°
2026-05-06 07:01 40.87840 14.27940 302 ft 4 kts 146°
2026-05-06 07:01 40.87833 14.27935 301 ft 4 kts 211°
2026-05-06 07:01 40.87819 14.27921 303 ft 3 kts 184°
2026-05-06 07:02 40.87798 14.27924 301 ft 1 kts 354°
2026-05-06 07:06 40.87799 14.27924 301 ft 1 kts 354°
2026-05-06 07:06 40.87816 14.27923 303 ft 5 kts
2026-05-06 07:06 40.87869 14.27972 301 ft 14 kts 50°
2026-05-06 07:06 40.87952 14.28096 297 ft 21 kts 33°
2026-05-06 07:07 40.88054 14.28214 293 ft 17 kts 54°
2026-05-06 07:07 40.88060 14.28358 289 ft 17 kts 97°
2026-05-06 07:07 40.88043 14.28528 287 ft 20 kts 98°
2026-05-06 07:07 40.88094 14.28689 284 ft 21 kts 52°
2026-05-06 07:08 40.88190 14.28854 280 ft 24 kts 52°
2026-05-06 07:08 40.88297 14.29040 275 ft 27 kts 53°
2026-05-06 07:08 40.88418 14.29251 270 ft 30 kts 53°
2026-05-06 07:08 40.88552 14.29481 263 ft 33 kts 53°
2026-05-06 07:09 40.88661 14.29672 258 ft 24 kts 53°
2026-05-06 07:09 40.88771 14.29861 252 ft 28 kts 52°
2026-05-06 07:09 40.88895 14.30076 245 ft 31 kts 53°
2026-05-06 07:09 40.89034 14.30317 237 ft 29 kts 53°
2026-05-06 07:10 40.89127 14.30445 230 ft 8 kts 17°
2026-05-06 07:10 40.89133 14.30447 230 ft 2 kts
2026-05-06 07:10 40.89162 14.30444 229 ft 7 kts 345°
2026-05-06 07:10 40.89215 14.30397 229 ft 8 kts 292°
2026-05-06 07:11 40.89200 14.30337 232 ft 9 kts 237°
2026-05-06 07:11 40.89077 14.30082 240 ft 68 kts 237°
2026-05-06 07:11 40.88697 14.29276 265 ft 137 kts 238°
2026-05-06 07:11 40.88103 14.28050 426 ft 171 kts 237°
2026-05-06 07:12 40.87387 14.26708 794 ft 186 kts 225°
2026-05-06 07:12 40.86700 14.25946 1202 ft 188 kts 213°
2026-05-06 07:12 40.85814 14.25349 1595 ft 177 kts 199°
2026-05-06 07:12 40.84624 14.25050 2238 ft 174 kts 187°
2026-05-06 07:13 40.83401 14.24990 2968 ft 181 kts 175°
2026-05-06 07:13 40.82108 14.25304 3505 ft 198 kts 171°
2026-05-06 07:13 40.80755 14.25671 4319 ft 195 kts 171°
2026-05-06 07:13 40.79420 14.26056 5119 ft 200 kts 172°
2026-05-06 07:14 40.78013 14.26469 5715 ft 214 kts 172°
2026-05-06 07:14 40.76514 14.26921 6350 ft 227 kts 171°
2026-05-06 07:14 40.74927 14.27371 6954 ft 240 kts 176°
2026-05-06 07:14 40.73260 14.27135 7446 ft 250 kts 208°
2026-05-06 07:15 40.71969 14.25568 7952 ft 263 kts 243°
2026-05-06 07:15 40.71562 14.23234 8911 ft 264 kts 266°
2026-05-06 07:15 40.71780 14.20804 9796 ft 272 kts 278°
2026-05-06 07:15 40.72205 14.18342 10497 ft 279 kts 276°
2026-05-06 07:16 40.72242 14.15757 10933 ft 290 kts 257°
2026-05-06 07:16 40.71830 14.13077 11389 ft 306 kts 261°
2026-05-06 07:16 40.71665 14.10244 12034 ft 316 kts 264°
2026-05-06 07:16 40.71500 14.07337 12810 ft 318 kts 265°
2026-05-06 07:17 40.71398 14.04413 13652 ft 323 kts 266°
2026-05-06 07:17 40.71330 14.01431 14323 ft 327 kts 267°
2026-05-06 07:17 40.71283 13.98467 15032 ft 330 kts 267°
2026-05-06 07:17 40.71245 13.95419 15710 ft 334 kts 268°
2026-05-06 07:18 40.71214 13.92347 16420 ft 337 kts 268°
2026-05-06 07:18 40.71188 13.89395 17051 ft 341 kts 268°
2026-05-06 07:18 40.71163 13.86257 17750 ft 344 kts 268°
2026-05-06 07:18 40.71137 13.83085 18375 ft 348 kts 267°
2026-05-06 07:19 40.71110 13.79887 18930 ft 351 kts 267°
2026-05-06 07:19 40.71083 13.76667 19520 ft 352 kts 267°
2026-05-06 07:19 40.71055 13.73426 20106 ft 354 kts 267°
2026-05-06 07:19 40.71026 13.70171 20694 ft 357 kts 267°
2026-05-06 07:20 40.70996 13.66891 21262 ft 359 kts 267°
2026-05-06 07:20 40.70966 13.63589 21807 ft 361 kts 267°
2026-05-06 07:20 40.70934 13.60274 22364 ft 363 kts 267°
2026-05-06 07:20 40.70901 13.56930 22924 ft 366 kts 267°
2026-05-06 07:21 40.70868 13.53567 23450 ft 368 kts 266°
2026-05-06 07:21 40.70834 13.50182 23902 ft 371 kts 266°
2026-05-06 07:21 40.70798 13.46774 24335 ft 373 kts 266°
2026-05-06 07:21 40.70762 13.43350 24739 ft 376 kts 266°
2026-05-06 07:22 40.70724 13.39896 25146 ft 378 kts 266°
2026-05-06 07:22 40.70686 13.36423 25555 ft 380 kts 266°
2026-05-06 07:22 40.70708 13.32925 25953 ft 385 kts 274°
2026-05-06 07:22 40.71408 13.29497 26382 ft 394 kts 291°
2026-05-06 07:23 40.72886 13.26412 26785 ft 403 kts 303°
2026-05-06 07:23 40.74583 13.23535 27143 ft 406 kts 302°
2026-05-06 07:23 40.76314 13.20583 27505 ft 409 kts 303°
2026-05-06 07:23 40.78071 13.17623 27895 ft 411 kts 303°
2026-05-06 07:24 40.79847 13.14653 28263 ft 413 kts 303°
2026-05-06 07:24 40.81634 13.11671 28621 ft 416 kts 303°
2026-05-06 07:24 40.83432 13.08674 28979 ft 418 kts 303°
2026-05-06 07:24 40.85241 13.05656 29324 ft 420 kts 303°
2026-05-06 07:25 40.87059 13.02620 29666 ft 422 kts 303°
2026-05-06 07:25 40.88878 12.99565 30003 ft 424 kts 302°
2026-05-06 07:25 40.90423 12.96278 30263 ft 417 kts 287°
2026-05-06 07:25 40.91021 12.92593 30498 ft 409 kts 268°
2026-05-06 07:26 40.90817 12.88854 30690 ft 410 kts 262°
2026-05-06 07:26 40.90677 12.85066 30937 ft 414 kts 265°
2026-05-06 07:26 40.90558 12.81270 31214 ft 415 kts 264°
2026-05-06 07:26 40.90412 12.77446 31459 ft 418 kts 264°
2026-05-06 07:27 40.90253 12.73603 31731 ft 419 kts 264°
2026-05-06 07:27 40.90090 12.69754 32013 ft 421 kts 264°
2026-05-06 07:27 40.89923 12.65895 32360 ft 420 kts 264°
2026-05-06 07:27 40.89757 12.62090 32720 ft 419 kts 264°
2026-05-06 07:28 40.89588 12.58247 33070 ft 419 kts 264°
2026-05-06 07:28 40.89418 12.54402 33406 ft 419 kts 264°
2026-05-06 07:28 40.89074 12.46727 34071 ft 418 kts 264°
2026-05-06 07:29 40.88901 12.42898 34364 ft 418 kts 264°
2026-05-06 07:29 40.88726 12.39068 34647 ft 417 kts 264°
2026-05-06 07:29 40.88551 12.35243 34926 ft 417 kts 264°
2026-05-06 07:29 40.88375 12.31423 35203 ft 416 kts 264°
2026-05-06 07:30 40.88203 12.27612 35478 ft 415 kts 264°
2026-05-06 07:30 40.88030 12.23802 35747 ft 415 kts 264°
2026-05-06 07:30 40.87857 12.20001 35967 ft 415 kts 264°
2026-05-06 07:30 40.87681 12.16198 35993 ft 414 kts 264°
2026-05-06 07:31 40.87329 12.08626 35998 ft 413 kts 263°
2026-05-06 07:31 40.86971 12.01059 35999 ft 413 kts 263°
2026-05-06 07:32 40.86608 11.93487 35998 ft 413 kts 263°
2026-05-06 07:32 40.86242 11.85927 35992 ft 413 kts 263°
2026-05-06 07:33 40.85880 11.78364 35992 ft 412 kts 263°
2026-05-06 07:33 40.85514 11.70803 35993 ft 412 kts 263°
2026-05-06 07:34 40.85144 11.63247 35991 ft 412 kts 263°
2026-05-06 07:34 40.84769 11.55690 35988 ft 412 kts 263°
2026-05-06 07:35 40.84390 11.48152 35988 ft 412 kts 263°
2026-05-06 07:35 40.84000 11.40611 35985 ft 411 kts 262°
2026-05-06 07:36 40.83071 11.33205 35984 ft 409 kts 258°
2026-05-06 07:36 40.82174 11.25787 35983 ft 409 kts 258°
2026-05-06 07:37 40.81291 11.18365 35982 ft 409 kts 258°
2026-05-06 07:37 40.80405 11.10942 35979 ft 410 kts 258°
2026-05-06 07:38 40.79514 11.03517 35983 ft 410 kts 258°
2026-05-06 07:38 40.78619 10.96090 35976 ft 410 kts 258°
2026-05-06 07:39 40.77719 10.88671 35980 ft 410 kts 258°
2026-05-06 07:39 40.76813 10.81242 35981 ft 410 kts 258°
2026-05-06 07:40 40.75904 10.73826 35982 ft 410 kts 258°
2026-05-06 07:40 40.74991 10.66416 35974 ft 409 kts 258°
2026-05-06 07:41 40.74072 10.59008 35971 ft 409 kts 258°
2026-05-06 07:41 40.73150 10.51611 35967 ft 409 kts 257°
2026-05-06 07:42 40.72224 10.44219 35969 ft 408 kts 257°
2026-05-06 07:42 40.71294 10.36840 35966 ft 408 kts 257°
2026-05-06 07:43 40.70361 10.29468 35959 ft 407 kts 257°
2026-05-06 07:43 40.69423 10.22105 35962 ft 407 kts 257°
2026-05-06 07:44 40.68483 10.14759 35968 ft 406 kts 258°
2026-05-06 07:44 40.67546 10.07477 35966 ft 406 kts 258°
2026-05-06 07:45 40.66600 10.00163 35966 ft 404 kts 258°
2026-05-06 07:45 40.65807 9.94064 35967 ft 403 kts 257°
2026-05-06 07:46 40.64705 9.85625 35967 ft 401 kts 258°
2026-05-06 07:46 40.63910 9.79571 35965 ft 400 kts 257°
2026-05-06 07:47 40.62960 9.72367 35967 ft 398 kts 258°
2026-05-06 07:47 40.62010 9.65201 35968 ft 397 kts 258°
2026-05-06 07:48 40.61064 9.58093 35963 ft 396 kts 257°
2026-05-06 07:48 40.60109 9.50953 35986 ft 396 kts 257°
2026-05-06 07:49 40.59149 9.43817 35971 ft 396 kts 257°
2026-05-06 07:49 40.58186 9.36694 35967 ft 395 kts 257°
2026-05-06 07:50 40.57220 9.29580 35971 ft 395 kts 257°
2026-05-06 07:50 40.56251 9.22478 35974 ft 395 kts 257°
2026-05-06 07:51 40.55278 9.15381 35976 ft 395 kts 257°
2026-05-06 07:51 40.54300 9.08281 35976 ft 395 kts 257°
2026-05-06 07:52 40.53316 9.01172 35976 ft 395 kts 257°
2026-05-06 07:52 40.52327 8.94063 35978 ft 396 kts 257°
2026-05-06 07:53 40.51333 8.86951 35978 ft 396 kts 257°
2026-05-06 07:53 40.50334 8.79829 35985 ft 396 kts 257°
2026-05-06 07:54 40.49330 8.72710 35977 ft 396 kts 257°
2026-05-06 07:54 40.48322 8.65591 35978 ft 397 kts 256°
2026-05-06 07:55 40.47310 8.58468 35970 ft 397 kts 256°
2026-05-06 07:55 40.46293 8.51342 35972 ft 397 kts 256°
2026-05-06 07:56 40.45272 8.44216 35974 ft 397 kts 256°
2026-05-06 07:56 40.44506 8.37031 35966 ft 401 kts 265°
2026-05-06 07:57 40.44264 8.29788 35971 ft 398 kts 258°
2026-05-06 07:57 40.43806 8.22488 35975 ft 401 kts 264°
2026-05-06 07:58 40.43328 8.15234 35971 ft 399 kts 262°
2026-05-06 07:58 40.42925 8.07963 35977 ft 399 kts 262°
2026-05-06 07:59 40.42233 8.00766 35974 ft 394 kts 251°
2026-05-06 07:59 40.41144 7.97506 35961 ft 389 kts 234°
2026-05-06 07:59 40.39231 7.95041 35973 ft 389 kts 214°
2026-05-06 08:00 40.34509 7.91468 35967 ft 391 kts 221°
2026-05-06 08:00 40.32676 7.88870 35978 ft 389 kts 236°
2026-05-06 08:00 40.31303 7.85808 35977 ft 391 kts 240°
2026-05-06 08:01 40.28252 7.80013 35963 ft 390 kts 221°
2026-05-06 08:01 40.25983 7.78074 35984 ft 393 kts 208°
2026-05-06 08:01 40.23503 7.76528 35975 ft 394 kts 211°
2026-05-06 08:02 40.21278 7.74500 35965 ft 389 kts 226°
2026-05-06 08:02 40.19544 7.71783 35986 ft 390 kts 234°
2026-05-06 08:02 40.16251 7.66152 35968 ft 390 kts 223°
2026-05-06 08:03 40.14032 7.64125 35985 ft 392 kts 210°
2026-05-06 08:03 40.11594 7.62499 35973 ft 393 kts 212°
2026-05-06 08:03 40.09369 7.60468 35964 ft 389 kts 225°
2026-05-06 08:03 40.07680 7.57729 35987 ft 389 kts 236°
2026-05-06 08:04 40.04729 7.51796 35970 ft 389 kts 228°
2026-05-06 08:04 40.02687 7.49502 35974 ft 390 kts 212°
2026-05-06 08:04 40.00267 7.47868 35978 ft 393 kts 209°
2026-05-06 08:05 39.97955 7.46010 35972 ft 389 kts 222°
2026-05-06 08:05 39.96090 7.43472 35987 ft 389 kts 231°
2026-05-06 08:05 39.92588 7.38100 35968 ft 389 kts 221°
2026-05-06 08:06 39.88035 7.34252 35971 ft 390 kts 218°
2026-05-06 08:06 39.86075 7.31839 35981 ft 388 kts 231°
2026-05-06 08:06 39.84471 7.29006 35977 ft 389 kts 234°
2026-05-06 08:07 39.80877 7.23799 35966 ft 389 kts 216°
2026-05-06 08:07 39.76462 7.19731 35983 ft 389 kts 220°
2026-05-06 08:08 39.72298 7.15256 35967 ft 388 kts 227°
2026-05-06 08:08 39.68714 7.10006 35977 ft 388 kts 227°
2026-05-06 08:09 39.64834 7.05125 35975 ft 389 kts 224°
2026-05-06 08:09 39.60928 7.00265 35975 ft 389 kts 224°
2026-05-06 08:10 39.57029 6.95395 35973 ft 389 kts 224°
2026-05-06 08:10 39.53133 6.90534 35975 ft 389 kts 224°
2026-05-06 08:11 39.49231 6.85672 35974 ft 389 kts 224°
2026-05-06 08:11 39.45360 6.80856 35973 ft 389 kts 224°
2026-05-06 08:12 39.41458 6.76009 35976 ft 389 kts 224°
2026-05-06 08:12 39.37553 6.71167 35975 ft 389 kts 224°
2026-05-06 08:13 39.33639 6.66322 35974 ft 390 kts 224°
2026-05-06 08:13 39.29722 6.61480 35971 ft 390 kts 224°
2026-05-06 08:14 39.25800 6.56640 35974 ft 390 kts 224°
2026-05-06 08:14 39.21870 6.51799 35972 ft 390 kts 224°
2026-05-06 08:15 39.17940 6.46964 35974 ft 391 kts 224°
2026-05-06 08:15 39.14002 6.42129 35971 ft 391 kts 224°
2026-05-06 08:16 39.10066 6.37304 35977 ft 391 kts 224°
2026-05-06 08:16 39.06122 6.32478 35975 ft 391 kts 224°
2026-05-06 08:17 39.02181 6.27661 35972 ft 391 kts 224°
2026-05-06 08:17 38.98273 6.22785 35974 ft 392 kts 225°
2026-05-06 08:18 38.94384 6.17876 35974 ft 392 kts 224°
2026-05-06 08:18 38.90484 6.12969 35972 ft 393 kts 224°
2026-05-06 08:19 38.86579 6.08065 35974 ft 393 kts 224°
2026-05-06 08:19 38.82667 6.03160 35974 ft 393 kts 224°
2026-05-06 08:20 38.78756 5.98263 35973 ft 393 kts 224°
2026-05-06 08:20 38.74839 5.93367 35971 ft 393 kts 224°
2026-05-06 08:21 38.70921 5.88477 35973 ft 394 kts 224°
2026-05-06 08:21 38.67019 5.83617 35967 ft 394 kts 224°
2026-05-06 08:22 38.63082 5.78719 35973 ft 395 kts 224°
2026-05-06 08:22 38.59137 5.73820 35975 ft 396 kts 224°
2026-05-06 08:23 38.55185 5.68920 35976 ft 396 kts 224°
2026-05-06 08:23 38.51218 5.64010 35976 ft 397 kts 224°
2026-05-06 08:24 38.47243 5.59098 35974 ft 400 kts 224°
2026-05-06 08:24 38.43202 5.54111 35971 ft 409 kts 224°
2026-05-06 08:25 38.39081 5.49035 35974 ft 413 kts 224°
2026-05-06 08:25 38.34938 5.43940 35974 ft 414 kts 224°
2026-05-06 08:26 38.30787 5.38845 35972 ft 415 kts 224°
2026-05-06 08:26 38.26624 5.33742 35973 ft 415 kts 225°
2026-05-06 08:27 38.22455 5.28641 35972 ft 416 kts 225°
2026-05-06 08:27 38.18283 5.23544 35964 ft 416 kts 225°
2026-05-06 08:28 38.14100 5.18443 35971 ft 417 kts 225°
2026-05-06 08:28 38.09907 5.13340 35969 ft 418 kts 225°
2026-05-06 08:29 38.05706 5.08232 35968 ft 419 kts 225°
2026-05-06 08:29 38.01497 5.03123 35964 ft 419 kts 225°
2026-05-06 08:30 37.97284 4.97998 35960 ft 419 kts 225°
2026-05-06 08:30 37.93085 4.92880 35961 ft 419 kts 225°
2026-05-06 08:31 37.88887 4.87774 35958 ft 419 kts 225°
2026-05-06 08:31 37.84713 4.82703 35958 ft 419 kts 225°
2026-05-06 08:32 37.80503 4.77599 35963 ft 419 kts 225°
2026-05-06 08:32 37.76286 4.72494 35958 ft 420 kts 225°
2026-05-06 08:33 37.72057 4.67383 35963 ft 421 kts 225°
2026-05-06 08:33 37.68505 4.63098 35959 ft 422 kts 225°